TF3VP-10 Weather Reports


time (UTC)temp
F
wind
direction
speed
knots
gust
knots
rain 1hr
in
rain 24hr
in
rain mn
in
humidity
%
barometer
mb
20260503005047 41 42 0.9 1.7 0.00 0.00 0.00 65 1026.3
20260503003547 41 42 0.9 1.7 0.00 0.00 0.00 65 1026.3
20260503002048 41 42 0.9 1.7 0.00 0.00 0.00 65 1026.3
20260503000548 41 42 0.9 1.7 0.00 0.00 0.00 65 1026.3
20260502235048 41 42 0.9 1.7 0.00 0.00 0.00 65 1026.3
20260502233547 41 42 0.9 1.7 0.00 0.00 0.00 65 1026.3
20260502232047 41 42 0.9 1.7 0.00 0.00 0.00 65 1026.3
20260502230548 41 42 0.9 1.7 0.00 0.00 0.00 65 1026.3
20260502225048 41 42 0.9 1.7 0.00 0.00 0.00 65 1026.3
20260502223548 41 42 0.9 1.7 0.00 0.00 0.00 65 1026.3
20260502222048 41 42 0.9 1.7 0.00 0.00 0.00 65 1026.3
20260502220548 41 42 0.9 1.7 0.00 0.00 0.00 65 1026.3
20260502215047 42 10 2.6 4.3 0.00 0.00 0.00 64 1026.4
20260502213547 42 46 2.6 4.3 0.00 0.00 0.00 63 1026.6
20260502212047 42 358 3.5 4.3 0.00 0.00 0.00 64 1026.6
20260502210547 43 3 1.7 1.7 0.00 0.00 0.00 64 1026.7
20260502205047 44 352 3.5 4.3 0.00 0.00 0.00 64 1026.6
20260502203547 44 333 3.5 4.3 0.00 0.00 0.00 63 1026.7
20260502202047 45 351 7.8 11.3 0.00 0.00 0.00 62 1026.7
20260502200547 45 324 0.0 1.7 0.00 0.00 0.00 62 1026.8
20260502195047 45 279 4.3 4.3 0.00 0.00 0.00 62 1026.8
20260502193548 45 245 5.2 7.0 0.00 0.00 0.00 61 1026.8
20260502192047 45 304 1.7 1.7 0.00 0.00 0.00 62 1027.1
20260502190547 45 310 6.1 8.7 0.00 0.00 0.00 62 1027.1
20260502185048 45 262 5.2 7.0 0.00 0.00 0.00 62 1027.5
20260502183547 46 265 8.7 11.3 0.00 0.00 0.00 59 1027.6
20260502182047 47 251 4.3 8.7 0.00 0.00 0.00 59 1027.7
20260502180547 47 315 2.6 4.3 0.00 0.00 0.00 57 1027.9
20260502163547 45 267 4.3 7.0 0.00 0.00 0.00 58 1028.6
20260502162047 46 303 9.6 13.0 0.00 0.00 0.00 58 1028.9
20260502160547 46 294 9.6 13.0 0.00 0.00 0.00 57 1029.0
20260502152047 46 297 7.0 8.7 0.00 0.00 0.00 58 1029.4
20260502150547 45 244 9.6 13.0 0.00 0.00 0.00 55 1029.8
20260502130547 25 302 0.0 0.0 0.00 0.00 0.00 63 1033.9
20260502123547 25 302 0.0 0.0 0.00 0.00 0.00 63 1033.9
20260502122047 25 302 0.0 0.0 0.00 0.00 0.00 63 1033.9
20260502120547 25 302 0.0 0.0 0.00 0.00 0.00 63 1033.9
20260502115047 25 302 0.0 0.0 0.00 0.00 0.00 63 1033.9
20260502113548 25 302 0.0 0.0 0.00 0.00 0.00 63 1033.9
20260502112048 25 302 0.0 0.0 0.00 0.00 0.00 63 1033.9
20260502110548 25 302 0.0 0.0 0.00 0.00 0.00 63 1033.9
20260502105047 25 302 0.0 0.0 0.00 0.00 0.00 63 1033.9
20260502103548 25 302 0.0 0.0 0.00 0.00 0.00 63 1033.9
20260502102047 25 302 0.0 0.0 0.00 0.00 0.00 63 1033.9
20260502100547 25 302 0.0 0.0 0.00 0.00 0.00 63 1033.9
20260502090548 25 302 0.0 0.0 0.00 0.00 0.00 63 1033.9
20260502070547 25 302 0.0 0.0 0.00 0.00 0.00 63 1033.9
20260502065047 25 302 0.0 0.0 0.00 0.00 0.00 63 1033.9
20260502063547 25 302 0.0 0.0 0.00 0.00 0.00 63 1033.9
20260502062047 25 302 0.0 0.0 0.00 0.00 0.00 63 1033.9
20260502060548 25 302 0.0 0.0 0.00 0.00 0.00 63 1033.9
20260502055047 31 18 0.9 1.7 0.00 0.00 0.00 53 1034.5
20260502053547 31 18 0.9 1.7 0.00 0.00 0.00 53 1034.5
20260502052047 31 18 0.9 1.7 0.00 0.00 0.00 53 1034.5
20260502050547 31 18 0.9 1.7 0.00 0.00 0.00 53 1034.5
20260502045047 31 18 0.9 1.7 0.00 0.00 0.00 53 1034.5
20260502043547 31 18 0.9 1.7 0.00 0.00 0.00 53 1034.5
20260502042047 31 18 0.9 1.7 0.00 0.00 0.00 53 1034.5
20260502040547 31 18 0.9 1.7 0.00 0.00 0.00 53 1034.5
20260502035047 31 18 0.9 1.7 0.00 0.00 0.00 53 1034.5
20260502033547 31 18 0.9 1.7 0.00 0.00 0.00 53 1034.5
20260502032047 31 18 0.9 1.7 0.00 0.00 0.00 53 1034.5
20260502030547 31 18 0.9 1.7 0.00 0.00 0.00 53 1034.5
20260502025047 31 18 0.9 1.7 0.00 0.00 0.00 53 1034.5
20260502023547 31 18 0.9 1.7 0.00 0.00 0.00 53 1034.5
20260502022049 31 18 0.9 1.7 0.00 0.00 0.00 53 1034.5
20260502020548 31 18 0.9 1.7 0.00 0.00 0.00 53 1034.5
20260502015048 31 18 0.9 1.7 0.00 0.00 0.00 53 1034.5
20260502013547 31 18 0.9 1.7 0.00 0.00 0.00 53 1034.5
20260502012047 31 18 0.9 1.7 0.00 0.00 0.00 53 1034.5
20260502010547 31 18 0.9 1.7 0.00 0.00 0.00 53 1034.5